• In Lithuania
  • List of Countries
  • For 7 days
  • Water Temperature
  • Satellite Maps
  • Weather Map
  • Weather Widgets
  • user-avatar
    Login

    Hourly Weather Farakka

    Today, 22 June, Friday

    Time Temperature Precipitation Wind Pressure Humidity
    00:00 +36°C° 0 mm 4 mps 747 mmHg 55%
    01:00 +36°C° 0 mm 4 mps 747 mmHg 56%
    02:00 +35°C° 0 mm 4 mps 747 mmHg 56%
    03:00 +35°C° 0 mm 4 mps 747 mmHg 57%
    04:00 +35°C° 0 mm 4 mps 748 mmHg 58%
    05:00 +35°C° 0 mm 4 mps 748 mmHg 58%
    06:00 +34°C° 0 mm 4 mps 748 mmHg 64%
    07:00 +35°C° 0 mm 4 mps 748 mmHg 60%
    08:00 +37°C° 0 mm 4 mps 748 mmHg 55%
    09:00 +39°C° 0 mm 5 mps 748 mmHg 50%
    10:00 +40°C° 0 mm 4 mps 748 mmHg 46%
    11:00 +42°C° 0 mm 4 mps 748 mmHg 41%
    12:00 +42°C° 0 mm 4 mps 748 mmHg 41%
    13:00 +42°C° 0 mm 3 mps 747 mmHg 39%
    14:00 +42°C° 0 mm 3 mps 747 mmHg 38%
    15:00 +41°C° 0 mm 2 mps 746 mmHg 37%
    16:00 +42°C° 0 mm 3 mps 746 mmHg 37%
    17:00 +42°C° 0 mm 3 mps 745 mmHg 37%
    18:00 +42°C° 0 mm 3 mps 745 mmHg 36%
    19:00 +40°C° 0 mm 3 mps 745 mmHg 39%
    20:00 +39°C° 0 mm 3 mps 746 mmHg 41%
    21:00 +40°C° 0 mm 4 mps 746 mmHg 43%
    22:00 +38°C° 0 mm 4 mps 746 mmHg 46%
    23:00 +38°C° 0 mm 4 mps 746 mmHg 48%

    Tomorrow, 23 June, Saturday

    Time Temperature Precipitation Wind Pressure Humidity
    00:00 +37°C° 0 mm 5 mps 747 mmHg 50%
    01:00 +36°C° 0 mm 5 mps 746 mmHg 53%
    02:00 +36°C° 0 mm 5 mps 746 mmHg 55%
    03:00 +35°C° 0 mm 4 mps 746 mmHg 57%
    04:00 +35°C° 0 mm 4 mps 746 mmHg 59%
    05:00 +35°C° 0 mm 4 mps 746 mmHg 61%
    06:00 +34°C° 0 mm 4 mps 747 mmHg 64%
    07:00 +36°C° 0 mm 4 mps 747 mmHg 59%
    08:00 +37°C° 0 mm 4 mps 747 mmHg 54%
    09:00 +40°C° 0 mm 5 mps 747 mmHg 48%
    10:00 +41°C° 0 mm 4 mps 747 mmHg 44%
    11:00 +43°C° 0 mm 4 mps 747 mmHg 39%
    12:00 +44°C° 0 mm 4 mps 747 mmHg 35%
    13:00 +44°C° 0 mm 4 mps 746 mmHg 36%
    14:00 +43°C° 0 mm 4 mps 745 mmHg 37%
    15:00 +43°C° 0 mm 3 mps 745 mmHg 38%
    16:00 +42°C° 0 mm 3 mps 744 mmHg 38%
    17:00 +42°C° 0 mm 3 mps 744 mmHg 39%
    18:00 +42°C° 0 mm 3 mps 744 mmHg 39%
    19:00 +40°C° 0 mm 3 mps 744 mmHg 41%
    20:00 +40°C° 0 mm 4 mps 744 mmHg 43%
    21:00 +40°C° 0 mm 4 mps 745 mmHg 44%
    22:00 +39°C° 0 mm 5 mps 745 mmHg 46%
    23:00 +37°C° 0 mm 5 mps 745 mmHg 49%

    Day after tomorrow, 24 June, Sunday

    Time Temperature Precipitation Wind Pressure Humidity
    00:00 +38°C° 0 mm 6 mps 745 mmHg 51%
    01:00 +36°C° 0.3 mm 6 mps 745 mmHg 53%
    02:00 +36°C° 0.3 mm 5 mps 745 mmHg 55%
    03:00 +35°C° 0.3 mm 5 mps 745 mmHg 58%
    04:00 +35°C° 0.6 mm 4 mps 745 mmHg 60%
    05:00 +35°C° 0.6 mm 4 mps 746 mmHg 62%
    06:00 +34°C° 0.6 mm 4 mps 746 mmHg 63%
    07:00 +35°C° 0.1 mm 4 mps 746 mmHg 60%
    08:00 +36°C° 0.1 mm 3 mps 747 mmHg 56%
    09:00 +37°C° 0.1 mm 3 mps 747 mmHg 53%
    10:00 +38°C° 0 mm 3 mps 747 mmHg 49%
    11:00 +39°C° 0 mm 3 mps 747 mmHg 46%
    12:00 +40°C° 0 mm 2 mps 746 mmHg 42%
    13:00 +41°C° 0 mm 2 mps 746 mmHg 41%
    14:00 +42°C° 0 mm 3 mps 745 mmHg 39%
    15:00 +43°C° 0 mm 3 mps 744 mmHg 38%
    16:00 +42°C° 0 mm 3 mps 744 mmHg 40%
    17:00 +41°C° 0 mm 4 mps 744 mmHg 42%
    18:00 +41°C° 0 mm 4 mps 744 mmHg 44%
    19:00 +40°C° 0.1 mm 4 mps 744 mmHg 47%
    20:00 +38°C° 0.1 mm 4 mps 745 mmHg 50%
    21:00 +37°C° 0.1 mm 4 mps 745 mmHg 53%
    22:00 +37°C° 0 mm 4 mps 746 mmHg 55%
    23:00 +36°C° 0 mm 4 mps 746 mmHg 56%

    25 June, Monday

    Time Temperature Precipitation Wind Pressure Humidity
    00:00 +36°C° 0 mm 4 mps 746 mmHg 57%
    01:00 +35°C° 0.2 mm 4 mps 746 mmHg 59%
    02:00 +35°C° 0.2 mm 4 mps 746 mmHg 61%
    03:00 +34°C° 0.2 mm 3 mps 745 mmHg 63%
    04:00 +34°C° 0.3 mm 3 mps 745 mmHg 65%
    05:00 +34°C° 0.3 mm 3 mps 745 mmHg 66%
    06:00 +34°C° 0.3 mm 3 mps 745 mmHg 67%
    07:00 +35°C° 0 mm 3 mps 746 mmHg 62%
    08:00 +36°C° 0 mm 3 mps 746 mmHg 57%
    09:00 +38°C° 0 mm 3 mps 746 mmHg 52%
    10:00 +38°C° 0 mm 3 mps 746 mmHg 49%
    11:00 +39°C° 0 mm 2 mps 746 mmHg 47%
    12:00 +40°C° 0 mm 2 mps 746 mmHg 44%
    13:00 +40°C° 0 mm 2 mps 745 mmHg 42%
    14:00 +41°C° 0 mm 1 mps 744 mmHg 40%
    15:00 +42°C° 0 mm 1 mps 744 mmHg 38%
    16:00 +41°C° 0 mm 2 mps 743 mmHg 41%
    17:00 +40°C° 0 mm 3 mps 743 mmHg 44%
    18:00 +39°C° 0 mm 3 mps 743 mmHg 47%
    19:00 +40°C° 0 mm 4 mps 744 mmHg 50%
    20:00 +38°C° 0 mm 4 mps 744 mmHg 52%
    21:00 +37°C° 0 mm 5 mps 745 mmHg 55%
    22:00 +37°C° 0.2 mm 5 mps 745 mmHg 56%
    23:00 +36°C° 0.2 mm 4 mps 745 mmHg 57%

    26 June, Tuesday

    Time Temperature Precipitation Wind Pressure Humidity
    00:00 +36°C° 0.2 mm 4 mps 745 mmHg 58%
    01:00 +35°C° 0.5 mm 4 mps 745 mmHg 61%
    02:00 +35°C° 0.5 mm 4 mps 744 mmHg 64%
    03:00 +34°C° 0.5 mm 3 mps 744 mmHg 66%
    04:00 +34°C° 0.9 mm 3 mps 745 mmHg 68%
    05:00 +33°C° 0.9 mm 3 mps 745 mmHg 71%
    06:00 +33°C° 0.9 mm 3 mps 745 mmHg 73%
    07:00 +34°C° 0 mm 3 mps 745 mmHg 69%
    08:00 +35°C° 0 mm 4 mps 746 mmHg 64%
    09:00 +37°C° 0 mm 4 mps 747 mmHg 60%
    10:00 +38°C° 0.4 mm 4 mps 746 mmHg 55%
    11:00 +40°C° 0.4 mm 4 mps 746 mmHg 50%
    12:00 +42°C° 0.4 mm 3 mps 746 mmHg 45%
    13:00 +41°C° 0 mm 4 mps 745 mmHg 46%
    14:00 +41°C° 0 mm 4 mps 745 mmHg 46%
    15:00 +41°C° 0 mm 4 mps 744 mmHg 47%
    16:00 +40°C° 0 mm 4 mps 744 mmHg 48%
    17:00 +40°C° 0 mm 4 mps 744 mmHg 49%
    18:00 +40°C° 0 mm 4 mps 744 mmHg 49%
    19:00 +39°C° 0.1 mm 5 mps 745 mmHg 52%
    20:00 +37°C° 0.1 mm 5 mps 745 mmHg 55%
    21:00 +36°C° 0.1 mm 6 mps 746 mmHg 58%
    22:00 +35°C° 1.5 mm 6 mps 746 mmHg 63%
    23:00 +34°C° 1.5 mm 6 mps 747 mmHg 67%

    27 June, Wednesday

    Time Temperature Precipitation Wind Pressure Humidity
    00:00 +33°C° 1.5 mm 6 mps 747 mmHg 71%
    01:00 +32°C° 1.1 mm 6 mps 747 mmHg 73%
    02:00 +32°C° 1.1 mm 5 mps 747 mmHg 75%
    03:00 +30°C° 1.1 mm 4 mps 746 mmHg 77%
    04:00 +30°C° 0.2 mm 4 mps 747 mmHg 77%
    05:00 +30°C° 0.2 mm 5 mps 747 mmHg 78%
    06:00 +30°C° 0.2 mm 5 mps 747 mmHg 79%
    07:00 +32°C° 0 mm 5 mps 748 mmHg 74%
    08:00 +33°C° 0 mm 5 mps 748 mmHg 69%
    09:00 +35°C° 0 mm 5 mps 748 mmHg 65%
    10:00 +35°C° 0 mm 5 mps 748 mmHg 61%
    11:00 +36°C° 0 mm 5 mps 748 mmHg 57%
    12:00 +38°C° 0 mm 6 mps 748 mmHg 54%
    13:00 +39°C° 0.2 mm 5 mps 747 mmHg 52%
    14:00 +39°C° 0.2 mm 5 mps 747 mmHg 50%
    15:00 +40°C° 0.2 mm 5 mps 747 mmHg 49%
    16:00 +39°C° 0.9 mm 5 mps 747 mmHg 52%
    17:00 +37°C° 0.9 mm 5 mps 747 mmHg 55%
    18:00 +36°C° 0.9 mm 5 mps 747 mmHg 59%
    19:00 +35°C° 1.1 mm 5 mps 747 mmHg 63%
    20:00 +34°C° 1.1 mm 5 mps 748 mmHg 68%
    21:00 +33°C° 1.1 mm 5 mps 748 mmHg 72%
    22:00 +33°C° 0.2 mm 5 mps 748 mmHg 73%
    23:00 +33°C° 0.2 mm 5 mps 748 mmHg 74%
    Show more